World > North America > United States > Texas

McFaddin, Texas Regional Weather

Lat: 28.55N, Lon: 97.01W
Wx Zone: TXZ234Web Search
McFaddin Weather Warning NWS WEATHER ALERT FOR THE MCFADDIN, TX AREA - Issued: 428 AM CDT Mon Apr 12 2021 McFaddin Weather Warning  

Helpful Tip: Type the letters wx in the search engine next time you need to find us.

Feedback


°F Click to change McFaddin hourly weather to Imperial units.Click to change McFaddin hourly weather to Metric units. °C
Mcfaddin Weather Map
UTC Time: 4/13/2021, 05:15
Your Time:

McFaddin, TX Regional Weather

Expires:202104130600;;470919
ASUS44 KSJT 130510
RWRSJT
WEST CENTRAL TEXAS REGIONAL WEATHER ROUNDUP
NATIONAL WEATHER SERVICE SAN ANGELO TX
1200 AM CDT TUE APR 13 2021

NOTE: "FAIR" INDICATES FEW OR NO CLOUDS BELOW 12,000 FEET WITH NO
SIGNIFICANT WEATHER AND/OR OBSTRUCTIONS TO VISIBILITY.


TXZ229-232-234-239-242-243-245-247-249-250-
253-255-257-343-347-443-130600-
TEXAS COASTAL BEND, RIO GRANDE PLAINS DEEP SOUTH TEXAS
  
CITY           SKY/WX    TMP DP  RH WIND       PRES   REMARKS
VICTORIA       CLOUDY    73  67  81 E8        29.85F                  
BEEVILLE       CLOUDY    74  74  98 E10       29.83R                  
ROCKPORT       CLOUDY    74  72  93 E17       29.82F FOG              
PORT ARANSAS   CLOUDY    72  71  96 E9        29.84S FOG              
PORT LAVACA    CLOUDY    75  70  83 E13       29.85S                  
CORPUS CHRISTI CLOUDY    74  72  93 E16       29.82R                  
KINGSVILLE NAS CLOUDY    75  71  87 E10       29.81S                  
COTULLA        CLOUDY    77  68  73 SE14      29.84R                  
LAREDO         CLEAR     75  68  78 E13       29.79R                  
BROWNSVILLE    PTCLDY    75  71  87 E7        29.78S                  
PORT ISABEL    MOCLDY    76  73  91 E10       29.78F                  
HEBBRONVILLE   MOCLDY    73  63  72 SE10      29.82R                  
MCALLEN        PTCLDY    75  70  84 E8        29.79R                  
WESLACO        NOT AVBL                                               
FALFURRIAS     MOCLDY    71  69  95 E6        29.80S            

SKY/WX - Weather  TMP - Temperature  DP - Dew Point  RH - Relative Humidity
WIND - Wind Direction/Speed PRES - Barometric Pressure VSB - Visibility
WCI - Wind Chill Index E13G22 Wind - East Wind 13 mph/Gusts of 22 mph